This is the latest recevied weather packets stored in our database for station/object PY2UTU-WX. If no packets are shown the sender has not sent any weather packets the latest 10 day(s).
| Time | Temp. | Humidity | Pressure | Rain* | Wind** | Luminosity | Snow |
|---|---|---|---|---|---|---|---|
| 1778265748 | 27.78° C | 90% | 919 hPa | - | - | - | - |
| 1778264848 | 27.78° C | 90% | 918.8 hPa | - | - | - | - |
| 1778263948 | 27.78° C | 91% | 918.9 hPa | - | - | - | - |
| 1778263048 | 28.33° C | 91% | 918.9 hPa | - | - | - | - |
| 1778262148 | 27.78° C | 91% | 918.9 hPa | - | - | - | - |
| 1778261248 | 28.33° C | 90% | 918.8 hPa | - | - | - | - |
| 1778260348 | 28.33° C | 90% | 918.6 hPa | - | - | - | - |
| 1778259448 | 28.33° C | 92% | 918.6 hPa | - | - | - | - |
| 1778258548 | 28.89° C | 90% | 918.7 hPa | - | - | - | - |
| 1778257648 | 28.33° C | 89% | 918.6 hPa | - | - | - | - |
| 1778256748 | 28.89° C | 90% | 918.7 hPa | - | - | - | - |
| 1778255848 | 28.89° C | 90% | 919.2 hPa | - | - | - | - |
| 1778254948 | 28.33° C | 91% | 919.3 hPa | - | - | - | - |
| 1778254048 | 28.33° C | 92% | 919.5 hPa | - | - | - | - |
| 1778253148 | 27.22° C | 92% | 919.8 hPa | - | - | - | - |
| 1778252248 | 27.78° C | 92% | 920 hPa | - | - | - | - |
| 1778251348 | 27.22° C | 93% | 920.4 hPa | - | - | - | - |
| 1778250447 | 27.78° C | 93% | 920.7 hPa | - | - | - | - |
| 1778249548 | 27.22° C | 94% | 921 hPa | - | - | - | - |
| 1778248648 | 27.22° C | 95% | 921.2 hPa | - | - | - | - |
| 1778247748 | 26.67° C | 95% | 921.4 hPa | - | - | - | - |
| 1778246847 | 26.67° C | 96% | 921.6 hPa | - | - | - | - |
| 1778245947 | 25.56° C | 97% | 921.8 hPa | - | - | - | - |
| 1778245048 | 26.11° C | 96% | 922.1 hPa | - | - | - | - |
| 1778244148 | 25.56° C | 96% | 922.3 hPa | - | - | - | - |
* Rain since midnight (hover to see other rain measurements)
** Current wind speed in m/s (hover to see current wind gust speed)